Wind_Speed
40 39 38 38 39 38 38 37 38 38 37 38 38 38 39 41 42 44 44 44 42 41 40 42 43 42 40 43 43 37 35 35 33 31 30 29 29 28 29 24 25 32 29 29 28 29 27
39 39 38 37 37 38 38 38 38 38 39 38 39 39 38 39 41 44 45 44 44 43 44 47 45 46 46 52 44 35 33 28 27 26 27 28 28 32 30 31 31 19 26 27 26 27 25
39 37 38 37 36 37 37 37 39 40 40 38 39 40 39 37 39 41 43 44 43 42 46 48 49 50 54 53 42 44 42 43 40 37 32 31 33 33 28 25 33 34 30 23 24 26 22
38 37 37 37 36 36 38 39 41 41 40 39 37 39 39 35 37 39 39 41 41 41 44 48 49 51 59 56 49 45 42 43 40 37 38 37 36 34 27 22 24 23 20 21 14 15 18
37 37 37 37 36 36 39 41 41 41 40 39 37 37 38 36 37 39 36 36 38 40 41 45 46 50 59 54 45 38 30 29 40 45 43 41 38 35 24 25 24 23 25 21 18 11 12
39 39 39 39 38 38 40 41 41 42 40 39 39 38 37 37 38 39 37 36 38 36 40 41 43 44 45 41 36 30 29 29 28 30 38 40 35 27 28 28 34 25 26 23 21 14 16
41 41 42 41 41 41 42 42 42 41 41 40 39 39 38 37 39 39 37 35 35 38 40 40 38 42 39 42 39 43 37 32 37 43 35 39 32 43 34 31 30 19 20 18 15 15 15
43 43 43 42 41 41 40 40 39 39 38 38 38 37 37 38 39 37 38 36 39 40 37 39 38 44 44 47 47 44 43 37 36 35 27 27 41 34 27 28 28 28 25 26 22 21 19
45 45 44 43 42 40 38 38 37 38 36 36 36 36 36 37 37 37 36 33 39 29 28 40 41 42 44 44 44 42 38 36 36 30 27 30 28 22 30 29 27 28 29 23 20 11 14
46 45 43 43 41 39 37 37 38 37 37 37 36 36 36 36 34 37 37 33 28 30 16 32 45 36 30 34 39 36 47 32 35 38 33 33 39 33 22 29 28 31 23 19 15 13 15
44 42 41 41 40 37 36 36 37 37 37 36 35 35 33 33 36 34 32 30 25 25 7 12 22 22 21 18 17 14 9 40 33 18 28 28 21 30 25 17 21 25 16 16 16 17 17
45 41 40 41 40 36 34 34 33 33 32 33 32 29 26 24 23 23 27 27 30 16 10 10 14 12 12 13 16 13 13 24 31 25 25 25 15 20 17 19 25 15 11 12 14 15 17
44 40 39 39 39 37 35 33 31 29 29 29 27 23 25 24 29 25 27 33 17 10 7 8 9 13 13 10 14 11 16 30 24 14 17 13 17 15 13 12 14 28 17 8 10 10 13
32 29 29 36 35 34 33 31 28 26 24 23 18 20 29 33 37 32 24 23 13 6 13 11 7 9 11 9 12 16 18 25 21 13 8 13 9 21 15 18 14 28 28 16 10 11 11
30 28 24 30 30 29 29 26 24 19 14 11 20 28 26 19 18 20 18 19 9 12 12 10 9 9 12 12 8 17 20 23 19 14 12 18 12 19 18 19 18 21 30 26 14 8 7
32 29 29 30 30 28 27 25 22 18 18 22 23 23 23 20 19 19 20 15 14 11 10 5 13 10 10 13 11 15 19 17 15 23 13 6 7 12 12 16 20 12 18 12 15 12 15
36 33 32 31 29 28 25 22 21 19 20 21 23 21 20 18 16 19 19 11 14 14 10 4 10 10 14 4 11 13 16 13 20 25 16 10 9 9 11 6 6 8 10 9 6 8 7
40 37 33 39 30 28 26 24 23 23 21 20 19 19 18 17 23 27 18 13 16 10 12 6 8 13 12 6 9 13 11 10 23 21 16 14 9 7 6 9 11 11 6 6 10 10 8
43 42 30 29 24 25 27 26 25 23 21 19 22 18 21 26 28 23 17 13 15 6 10 10 7 14 7 11 4 11 10 13 15 15 14 10 5 4 4 9 14 7 13 16 15 13 13
43 46 37 30 24 22 27 26 24 25 24 23 21 18 28 30 30 21 17 15 14 15 11 9 8 15 11 10 6 11 14 12 16 16 11 12 13 9 7 3 6 6 9 8 10 6 8
43 41 42 30 26 21 22 26 24 26 28 26 25 15 24 34 34 23 17 13 17 11 12 10 7 8 15 8 7 11 18 20 18 15 14 14 7 11 5 7 7 6 8 10 13 14 10
37 45 40 31 24 21 18 20 20 23 27 29 23 13 22 9 23 23 20 15 17 13 11 11 7 5 6 9 7 14 17 15 10 14 12 10 6 10 7 7 7 11 12 13 16 17 19
35 41 36 34 26 23 18 20 22 28 31 28 20 16 22 9 20 20 20 12 15 14 12 10 7 8 12 11 9 10 14 13 8 10 11 8 7 6 3 2 2 8 8 13 13 11 11
28 35 27 34 28 25 21 22 24 31 33 26 18 22 20 11 20 18 15 13 15 13 9 7 10 12 12 12 10 9 9 10 10 9 8 6 9 6 4 3 4 2 4 5 8 11 18
34 33 32 30 27 22 20 24 26 35 34 22 22 19 17 14 16 17 14 16 12 12 13 12 12 12 11 11 9 7 6 6 6 8 9 10 7 4 4 7 1 5 7 10 10 13 22
27 25 23 22 19 22 22 25 30 33 34 24 20 23 15 15 18 15 13 10 14 15 12 13 12 11 13 15 10 7 6 7 7 5 7 8 7 4 4 3 4 7 7 10 12 12 16
23 22 22 19 17 19 20 33 33 30 32 20 25 19 14 13 14 16 16 16 14 14 12 14 13 11 12 15 9 6 4 8 7 8 6 7 5 7 7 4 3 5 7 10 5 5 13
23 22 18 18 22 18 27 32 30 30 18 21 18 20 17 12 13 18 15 14 11 12 11 13 13 12 13 11 7 5 6 6 6 10 8 6 7 5 5 4 2 5 7 4 8 9 10
23 23 21 21 25 22 22 23 21 22 26 16 16 18 16 11 20 17 13 11 10 10 11 15 9 13 12 9 6 6 6 7 9 4 9 4 8 5 5 3 4 5 3 2 3 3 3
Wind_Direction
269 267 268 269 272 272 273 274 276 276 276 278 277 275 274 274 272 271 269 269 270 272 276 274 277 279 276 275 271 277 279 279 279 278 277 275 275 272 262 266 257 266 266 269 272 269 273
267 269 268 268 268 271 271 273 273 274 275 275 276 277 277 275 273 271 271 270 270 272 274 276 276 274 275 273 281 274 275 281 276 275 279 270 269 266 260 257 258 264 266 266 268 270 271
268 268 268 268 269 270 271 271 271 271 273 275 276 277 276 276 275 274 273 272 270 268 269 270 272 275 273 276 279 274 278 276 276 275 273 271 265 260 262 259 261 260 262 262 260 262 256
267 268 269 270 269 270 271 271 271 271 271 272 273 275 276 274 273 273 274 276 273 270 268 268 270 271 272 277 280 284 282 275 267 268 269 266 265 259 242 243 256 255 255 253 255 236 239
267 267 267 268 270 269 269 270 272 272 274 275 274 273 273 272 271 272 275 274 271 268 267 266 269 267 278 280 286 288 283 282 266 262 259 257 253 250 244 239 250 241 245 242 237 222 230
267 268 268 268 268 268 269 271 272 273 274 275 275 273 271 270 269 270 271 269 268 266 264 268 271 275 276 283 277 272 273 276 259 263 251 242 234 231 231 227 232 241 244 243 236 238 239
267 267 267 268 270 269 270 270 271 273 275 275 274 272 270 267 264 266 268 263 259 267 265 268 269 268 266 268 271 273 275 272 259 262 247 233 221 228 230 231 234 258 249 246 235 225 253
269 269 270 272 272 271 272 273 274 275 276 275 273 269 266 263 262 259 255 258 256 264 272 270 272 273 269 274 276 274 273 264 257 247 228 217 231 232 241 236 235 238 246 251 259 256 249
269 270 272 273 274 275 275 276 276 277 276 273 270 267 262 260 256 253 253 249 255 266 269 274 275 275 274 273 273 261 259 254 254 242 225 225 240 236 239 241 233 242 243 250 251 247 253
270 272 274 274 275 275 275 275 276 275 274 272 268 263 259 257 251 251 247 249 257 250 262 274 278 280 276 269 271 262 246 240 242 248 222 225 234 239 258 243 236 238 236 236 242 249 252
271 274 276 277 277 278 275 274 274 274 273 271 266 261 260 252 251 251 248 245 255 251 277 258 246 262 268 264 260 291 252 233 230 214 209 232 214 215 228 229 231 239 240 237 238 247 256
271 271 272 274 275 275 275 274 272 271 269 265 261 260 258 253 259 249 243 255 240 227 230 230 241 250 260 270 255 252 234 214 219 215 215 215 213 202 220 231 223 243 236 230 233 236 245
268 268 267 270 272 272 272 272 272 267 259 257 256 249 259 251 249 261 245 247 218 224 214 227 242 257 263 253 269 222 214 199 201 196 219 225 229 230 221 213 225 215 211 212 227 219 242
260 265 259 261 262 268 270 271 269 259 250 248 253 255 258 246 232 234 232 225 218 215 220 239 239 257 239 240 242 211 198 202 209 222 233 209 214 211 212 215 214 197 200 215 214 227 231
244 248 249 253 247 254 262 263 264 251 243 223 233 229 223 227 238 243 231 209 213 222 226 241 242 259 237 225 213 202 211 213 210 197 218 200 211 205 219 215 200 199 215 230 268 265 269
230 231 237 247 249 246 250 251 247 235 218 215 221 231 245 245 234 229 218 213 219 198 192 236 222 225 223 211 203 194 189 197 208 203 201 193 165 180 185 195 207 198 198 210 219 245 241
226 222 238 242 249 239 238 240 239 235 231 233 235 237 233 229 216 207 207 206 198 195 194 194 217 225 202 193 210 181 189 192 193 198 208 202 217 195 187 196 181 197 208 223 235 254 271
226 222 228 236 243 240 230 228 229 230 226 220 220 215 211 200 193 201 210 202 205 203 204 226 233 224 231 176 200 176 178 180 188 187 199 199 200 159 193 233 228 223 226 220 245 227 246
222 226 238 226 232 236 234 231 228 230 224 219 209 208 194 189 192 205 213 212 212 193 208 210 232 200 167 171 167 193 190 182 160 176 176 186 183 198 245 257 247 230 241 242 244 242 250
222 229 234 216 227 237 238 236 229 224 221 211 206 191 186 191 205 204 199 203 207 197 203 219 227 208 155 174 184 169 174 172 179 180 193 198 205 224 244 214 181 198 205 212 212 218 261
225 221 224 219 223 226 237 243 231 218 216 214 203 197 197 205 205 203 194 194 193 190 207 192 207 203 174 163 169 160 176 175 180 195 196 199 201 214 218 213 208 205 214 236 238 250 259
242 238 224 219 214 207 234 234 217 200 200 191 185 181 179 199 193 195 192 189 195 190 189 195 182 185 175 186 187 191 184 175 182 197 200 204 201 209 236 247 255 258 253 250 249 255 260
232 230 229 217 202 212 228 236 212 192 187 183 174 179 166 175 181 185 191 186 190 195 215 227 189 211 185 210 216 202 200 207 211 203 209 212 211 194 219 183 247 264 257 251 243 247 261
234 221 200 198 204 219 226 223 204 188 177 160 171 165 176 173 182 175 186 191 192 202 229 221 189 198 202 195 193 192 199 208 216 219 222 209 187 177 171 173 224 181 205 211 225 271 275
199 215 196 190 203 208 209 210 203 186 169 172 162 171 176 182 183 190 178 193 202 220 216 216 196 201 188 180 139 123 127 137 165 186 183 175 167 165 198 208 144 265 260 272 287 281 283
162 171 172 181 194 200 201 199 194 173 169 181 177 171 174 159 180 184 183 201 202 203 194 195 198 195 185 172 158 171 173 166 168 150 185 184 189 178 184 241 219 172 213 304 297 257 270
160 167 180 187 182 202 197 181 170 178 184 167 167 165 162 179 194 184 194 196 194 199 200 203 197 186 183 179 167 160 157 159 161 170 159 154 180 199 212 242 246 251 297 307 230 287 298
163 169 180 182 186 180 172 177 171 183 189 147 154 168 167 179 182 185 182 183 199 207 202 188 175 184 176 171 173 163 148 166 144 168 168 175 183 186 197 225 184 295 308 246 262 295 313
161 175 186 185 163 162 153 159 168 181 180 165 178 169 176 193 173 170 178 193 188 184 181 179 180 176 176 179 169 162 144 151 154 140 180 194 192 180 181 189 290 327 346 5 3 22 53
Height
3085 3086 3086 3087 3088 3087 3088 3088 3089 3090 3090 3090 3091 3092 3091 3092 3091 3090 3088 3089 3088 3089 3089 3088 3089 3090 3090 3087 3088 3092 3092 3091 3092 3091 3092 3091 3091 3092 3089 3089 3090 3085 3086 3084 3085 3084 3085
3076 3077 3077 3078 3078 3078 3079 3080 3080 3080 3081 3081 3082 3083 3084 3083 3083 3081 3080 3081 3081 3082 3082 3081 3079 3080 3080 3074 3084 3087 3086 3086 3086 3085 3086 3085 3085 3084 3081 3080 3081 3081 3079 3079 3078 3078 3078
3067 3067 3068 3068 3070 3070 3071 3071 3071 3072 3072 3072 3073 3074 3075 3075 3075 3072 3073 3072 3074 3076 3074 3073 3071 3069 3067 3068 3076 3076 3080 3079 3080 3080 3079 3080 3078 3076 3077 3075 3072 3075 3073 3072 3072 3072 3072
3057 3058 3059 3060 3061 3061 3061 3061 3062 3063 3063 3063 3064 3065 3065 3067 3067 3064 3064 3065 3066 3068 3066 3064 3063 3061 3051 3059 3065 3069 3071 3069 3071 3071 3071 3070 3069 3069 3069 3072 3068 3068 3070 3068 3065 3067 3068
3048 3049 3050 3050 3051 3052 3052 3052 3052 3053 3053 3053 3054 3056 3057 3059 3058 3056 3057 3058 3057 3058 3057 3055 3056 3054 3046 3051 3057 3060 3061 3060 3061 3058 3061 3061 3060 3060 3064 3066 3066 3062 3060 3061 3062 3059 3063
3038 3038 3039 3040 3041 3042 3041 3042 3043 3044 3045 3045 3045 3046 3047 3049 3048 3048 3050 3050 3048 3048 3047 3049 3049 3051 3048 3047 3046 3049 3052 3052 3051 3049 3051 3051 3051 3053 3053 3058 3051 3058 3055 3056 3056 3056 3054
3028 3028 3028 3030 3031 3031 3032 3032 3033 3034 3034 3035 3036 3036 3038 3038 3037 3039 3043 3042 3041 3041 3038 3041 3041 3038 3038 3036 3038 3039 3041 3044 3043 3041 3041 3044 3044 3035 3047 3049 3052 3052 3052 3052 3052 3053 3050
3018 3017 3018 3020 3021 3021 3022 3022 3022 3023 3024 3025 3027 3027 3027 3027 3028 3032 3030 3030 3031 3033 3032 3032 3032 3027 3029 3028 3029 3031 3034 3036 3034 3032 3037 3039 3028 3037 3044 3045 3046 3047 3047 3047 3048 3049 3045
3007 3007 3008 3009 3011 3011 3012 3012 3012 3014 3014 3016 3016 3018 3017 3017 3019 3019 3021 3021 3023 3028 3027 3025 3021 3019 3019 3020 3017 3024 3023 3023 3024 3025 3028 3028 3031 3032 3037 3039 3039 3039 3041 3043 3044 3044 3041
2997 2997 2997 2998 2999 3000 3002 3002 3002 3004 3004 3007 3007 3008 3006 3008 3011 3009 3011 3015 3018 3024 3022 3018 3009 3006 3009 3007 3006 3008 3012 3018 3014 3014 3015 3017 3019 3025 3030 3031 3036 3033 3037 3038 3039 3041 3037
2984 2987 2986 2987 2989 2990 2991 2993 2993 2995 2995 2996 2997 2996 2998 2997 2998 3003 3007 3010 3015 3021 3016 3010 3003 3000 3000 3005 3004 3002 3004 3006 3008 3010 3010 3008 3013 3011 3022 3023 3032 3032 3034 3033 3035 3035 3036
2973 2977 2976 2976 2979 2981 2982 2982 2985 2985 2987 2986 2988 2989 2988 2991 2991 2996 2999 3003 3010 3015 3005 3002 2998 2995 2997 2997 2999 2998 3000 3003 3005 3004 3003 3006 3008 3010 3017 3021 3021 3031 3031 3031 3032 3031 3027
2962 2965 2967 2967 2968 2970 2972 2974 2976 2976 2977 2979 2978 2983 2979 2982 2986 2990 2993 2998 3003 2997 2995 2997 2994 2993 2993 2992 2992 2995 2995 2996 2998 3000 3002 3004 3006 3009 3009 3013 3018 3026 3028 3028 3029 3024 3015
2953 2955 2956 2957 2960 2960 2961 2965 2968 2968 2968 2970 2971 2975 2974 2972 2978 2984 2985 2990 2990 2986 2989 2988 2989 2990 2989 2990 2988 2992 2993 2995 2995 2999 3000 3003 3006 3007 3008 3011 3016 3015 3021 3023 3014 3007 3007
2943 2946 2949 2947 2950 2952 2953 2956 2960 2960 2961 2964 2968 2969 2973 2972 2973 2980 2982 2983 2981 2982 2985 2984 2986 2987 2987 2987 2988 2989 2990 2994 2996 2997 3000 2999 3003 3003 3005 3008 3012 3014 3014 3016 3011 3010 3009
2932 2937 2939 2939 2942 2944 2946 2948 2952 2955 2956 2959 2963 2965 2967 2970 2968 2973 2975 2974 2976 2978 2979 2981 2983 2984 2983 2983 2985 2985 2987 2990 2992 2994 2996 2997 3001 3003 3004 3007 3008 3009 3010 3013 3012 3006 3001
2922 2926 2930 2931 2933 2935 2939 2941 2944 2947 2950 2953 2956 2959 2961 2964 2965 2968 2969 2971 2971 2971 2976 2980 2980 2979 2979 2981 2982 2982 2986 2987 2989 2991 2994 2995 3000 3002 3003 3004 3004 3007 3007 3007 3005 3006 3000
2913 2917 2918 2922 2925 2929 2932 2935 2938 2941 2945 2947 2950 2953 2955 2959 2963 2963 2964 2966 2966 2969 2973 2976 2977 2976 2976 2979 2979 2980 2983 2982 2985 2987 2991 2998 2997 2999 3002 3000 3001 3001 3001 3002 3004 3003 3005
2903 2906 2908 2913 2918 2921 2925 2929 2932 2935 2938 2942 2945 2948 2951 2955 2957 2959 2962 2963 2964 2968 2971 2973 2973 2972 2973 2975 2979 2977 2979 2980 2982 2986 2990 2993 2994 2998 2999 3000 2998 2999 2999 3000 3002 3003 3003
2893 2895 2900 2905 2911 2915 2918 2921 2925 2928 2933 2937 2941 2943 2946 2950 2952 2956 2959 2960 2963 2965 2969 2970 2971 2970 2970 2973 2975 2976 2978 2981 2984 2987 2989 2992 2992 2994 2991 2992 2995 2996 2998 2999 3000 3001 2999
2883 2886 2893 2897 2905 2908 2912 2915 2918 2922 2926 2932 2933 2935 2940 2942 2946 2951 2955 2958 2961 2964 2965 2967 2968 2967 2969 2972 2973 2975 2977 2980 2983 2986 2987 2990 2991 2991 2990 2991 2993 2994 2996 2997 2997 2998 2998
2874 2878 2885 2893 2900 2903 2906 2910 2912 2916 2920 2925 2928 2932 2937 2939 2944 2948 2952 2955 2958 2961 2963 2965 2966 2967 2968 2970 2973 2974 2976 2979 2981 2983 2984 2985 2986 2987 2989 2990 2991 2992 2993 2993 2993 2994 2994
2866 2873 2881 2887 2893 2898 2902 2905 2908 2911 2917 2921 2927 2930 2935 2938 2942 2946 2949 2953 2956 2959 2961 2961 2964 2966 2968 2969 2971 2973 2975 2977 2979 2980 2982 2983 2984 2986 2988 2989 2990 2991 2990 2990 2991 2992 2991
2862 2870 2874 2883 2889 2893 2896 2900 2905 2909 2915 2921 2926 2929 2934 2938 2941 2943 2948 2952 2955 2958 2959 2960 2961 2964 2967 2967 2970 2972 2974 2975 2977 2978 2980 2981 2983 2986 2987 2988 2988 2986 2985 2985 2985 2986 2984
2859 2864 2872 2879 2885 2888 2891 2896 2901 2907 2913 2918 2924 2929 2933 2936 2940 2943 2947 2951 2952 2955 2957 2958 2960 2963 2964 2967 2970 2972 2975 2977 2977 2977 2979 2981 2983 2984 2986 2985 2987 2985 2985 2985 2983 2983 2979
2857 2865 2871 2876 2880 2884 2888 2893 2899 2905 2912 2918 2923 2928 2931 2935 2939 2942 2945 2949 2951 2953 2955 2956 2959 2961 2963 2965 2968 2971 2973 2974 2977 2978 2978 2979 2981 2984 2985 2984 2981 2983 2982 2982 2980 2978 2973
2859 2865 2870 2874 2878 2882 2887 2892 2898 2904 2911 2916 2922 2926 2930 2934 2937 2941 2944 2946 2948 2951 2954 2954 2957 2959 2961 2963 2966 2969 2971 2972 2974 2976 2977 2978 2980 2982 2983 2982 2981 2981 2980 2978 2979 2979 2971
2860 2865 2870 2874 2878 2882 2887 2892 2898 2904 2910 2915 2922 2926 2929 2933 2935 2939 2942 2946 2948 2950 2951 2953 2957 2958 2960 2963 2965 2965 2968 2970 2971 2972 2975 2977 2979 2979 2980 2980 2980 2978 2977 2978 2975 2972 2969
2861 2865 2869 2874 2878 2883 2887 2893 2899 2905 2909 2916 2921 2924 2928 2933 2935 2939 2943 2945 2947 2948 2950 2952 2954 2955 2958 2960 2962 2963 2965 2967 2969 2972 2973 2977 2976 2977 2978 2977 2977 2976 2975 2973 2971 2970 2969